Miscellaneous Local Product
Issued by NWS North Platte, NE

Home | Current Version | Previous Version | Text Only | Print | Product List | Glossary On
Versions: 1 2 3 4 5 6 7 8 9 10 11 12 13 14 15 16 17 18 19 20 21 22 23 24 25 26 27 28 29 30 31 32 33 34 35 36 37 38 39 40 41 42 43 44 45 46 47 48 49 50
541
AXUS43 KLBF 102110
MISLBF


WESTERN AND NORTH CENTRAL NEBRASKA HOURLY WEATHER ROUNDUP
NATIONAL WEATHER SERVICE NORTH PLATTE NE
300 PM CST WED FEB 10 2016

NOTE: "FAIR" INDICATES FEW OR NO CLOUDS BELOW 12,000 FEET WITH NO
SIGNIFICANT WEATHER AND/OR OBSTRUCTIONS TO VISIBILITY.

NOTE: STATIONS NOT REPORTING VARIABLES SUCH AS SKY/WEATHER OR
PRESSURE ARE PROVIDED BY THE NEBRASKA DEPARTMENT OF
ROADS...RAWS...AND APRS NETWORKS...AND ARE NOT UNDER
NATIONAL WEATHER SERVICE QUALITY CONTROL.

...OBSERVATIONS IN AND NEAR THE EASTERN PANHANDLE OF NEBRASKA...

CITY           SKY/WX    TMP DP  RH WIND       PRES   REMARKS
PINE RIDGE     SUNNY     63  24  22 N14       29.92S
CHADRON        SUNNY     63  25  23 NW21G33   29.94F
ALLIANCE       CLOUDY    50  31  48 NW15      29.97F
SIDNEY         CLOUDY    51  30  44 NW13      30.01F
CRESCENT LAKE    N/A     60  26  27 NW18G26     N/A
BIG SPRINGS      N/A     51  34  52 NW8         N/A
$$

...OBSERVATIONS IN NORTH CENTRAL NEBRASKA...

CITY           SKY/WX    TMP DP  RH WIND       PRES   REMARKS
VALENTINE      SUNNY     55  28  35 NW17      29.89R
THEDFORD       SUNNY     63  27  24 NW20G29   29.89R
AINSWORTH      SUNNY     57  26  30 NW23G35   29.87R
O`NEILL        SUNNY     42  31  65 NE13      29.85R
ORD            SUNNY     56  30  37 NW9       29.83S
BROKEN BOW     SUNNY     59  31  34 NW12      29.86R
VALENTINE NWR    N/A     60  23  24 NW22G30     N/A
BUTTE            N/A     45  32  59 N12         N/A
HALSEY           N/A     63  25  23 NW13G23     N/A
CHAMBERS         N/A     56  31  39 N9          N/A
EWING            N/A     37  30  77 NE7         N/A  WCI  31
$$

...OBSERVATIONS IN SOUTHWEST NEBRASKA AND FAR NORTHEAST COLORADO...

CITY           SKY/WX    TMP DP  RH WIND       PRES   REMARKS
HOLYOKE        FAIR      59  30  33 NW12G20   30.00F
IMPERIAL       SUNNY     51  29  42 NW14G24   29.97F
OGALLALA       SUNNY     54  29  39 NW13      29.95R
NORTH PLATTE   SUNNY     51  31  46 W10       29.90S
MCCOOK         SUNNY     51  30  44 W14G23    29.94S
LEXINGTON      SUNNY     49  32  51 W15       29.90R
PAXTON           N/A     52  39  61 SW7         N/A
STAPLETON        N/A     58  34  41 W3          N/A
GOTHENBURG       N/A     55  30  38 NW7         N/A
CALLAWAY         N/A     52  36  55 W10         N/A
$$

...OBSERVATIONS IN CENTRAL LINCOLN COUNTY AREA...

CITY           SKY/WX    TMP DP  RH WIND       PRES   REMARKS
N.P. AIRPORT   SUNNY     51  31  46 W10       29.90S
N.P. DOWNTOWN    N/A     56  37  48 W3          N/A
N.P. SOUTHEAST   N/A     56  34  44 W3          N/A
N.P. HILLCREST   N/A     56  35  45 NW9         N/A
$$

...SOME OBSERVATIONS FROM AROUND THE REGION...

CITY           SKY/WX    TMP DP  RH WIND       PRES   REMARKS
DENVER         MOSUNNY   65  17  15 NW17      30.09F
LARAMIE        SUNNY     47  20  34 W24G35    30.14F
CHEYENNE       SUNNY     57  16  20 W28G37    30.08F
SCOTTSBLUFF    SUNNY     62  25  24 W16       30.00F
RAPID CITY     SUNNY     61  21  21 NW25G40   29.93R
BISMARCK       CLOUDY    25  15  66 NE9       30.04R WCI  15
PIERRE         SUNNY     46  30  53 N20       29.90R
WINNER         FAIR      50  30  46 N18       29.87R
SIOUX FALLS    CLOUDY    17  12  80 E15       29.97R WCI   2
OMAHA          MOSUNNY   37  23  56 SE8       29.92R WCI  31
GRAND ISLAND   SUNNY     47  32  56 W6        29.86R
KANSAS CITY    MOSUNNY   46  21  37 S8        29.90F
WICHITA        SUNNY     64  31  28 SW14      29.90F
OKLAHOMA CITY  SUNNY     72  30  21 SW18G28   30.00F
LIBERAL        SUNNY     79  21  11 NW14G22   30.02F
HAYS           SUNNY     63  30  29 NW23      29.93S
GOODLAND       SUNNY     59  28  30 NW12      30.02F
$$




USA.gov is the U.S. government's official web portal to all federal, state and local government web resources and services.